WXM80 ListenWXM80 Stop

You find our weather info also at:

UK Metoffice

WeatherCloud

Weather Underground

Northeastern Weather Network

AWEKAS

Citizen Weather Observer Program (CWOP)

HAMweather, WeatherForYou, PWS Weather


Weather Underground History page Text

Daily Summary for September 25, 2017 Units:  English    Metric   Both
« Previous Day
Next Day »
Daily Weekly Monthly Yearly Custom
  High: Low: Average:
Temperature: 85.6 °F 64.4 °F 72.6 °F
Dew Point: 73.1 °F 61.3 °F 66.5 °F
Humidity: 97 % 62 % 82 %
Wind Speed: 4.7 mph 0.0 mph 0.6 mph
Wind Gust: 9.2 mph - -
Wind:- - ESE
Pressure: 29.99 in 29.91 in -
Precipitation: 0.00 in    
Historical Graphs
 
 
Tabular Data for September 25, 2017
Time Temperature Dew Point Pressure Wind Wind Speed Wind Gust Humidity Rainfall Rate (Hourly)
00:00 68.8 °F 62.4 °F 29.96 in Calm     80 % 0.00 in
00:05 68.6 °F 62.2 °F 29.96 in Calm     80 % 0.00 in
00:10 68.5 °F 62.1 °F 29.96 in Calm     80 % 0.00 in
00:15 68.3 °F 61.9 °F 29.96 in Calm     80 % 0.00 in
00:20 68.2 °F 62.1 °F 29.96 in Calm     81 % 0.00 in
00:25 68.1 °F 62.0 °F 29.96 in Calm     81 % 0.00 in
00:30 67.9 °F 61.9 °F 29.95 in Calm     81 % 0.00 in
00:35 67.8 °F 61.8 °F 29.95 in Calm     81 % 0.00 in
00:40 67.7 °F 61.7 °F 29.94 in Calm     81 % 0.00 in
00:45 67.6 °F 61.6 °F 29.94 in Calm     81 % 0.00 in
00:50 67.5 °F 61.5 °F 29.94 in Calm     81 % 0.00 in
00:55 67.4 °F 61.7 °F 29.94 in Calm     82 % 0.00 in
01:00 67.3 °F 61.6 °F 29.94 in Calm     82 % 0.00 in
01:06 67.2 °F 61.9 °F 29.94 in Calm     83 % 0.00 in
01:10 67.1 °F 61.8 °F 29.94 in Calm     83 % 0.00 in
01:16 67.0 °F 61.3 °F 29.94 in Calm     82 % 0.00 in
01:21 66.9 °F 61.6 °F 29.94 in Calm     83 % 0.00 in
01:26 66.8 °F 61.5 °F 29.94 in Calm     83 % 0.00 in
01:31 66.8 °F 61.4 °F 29.94 in Calm     83 % 0.00 in
01:36 66.7 °F 61.7 °F 29.94 in Calm     84 % 0.00 in
01:41 66.6 °F 61.6 °F 29.94 in Calm     84 % 0.00 in
01:46 66.5 °F 61.5 °F 29.94 in Calm     84 % 0.00 in
01:51 66.5 °F 61.5 °F 29.94 in Calm     84 % 0.00 in
01:56 66.4 °F 61.4 °F 29.93 in Calm     84 % 0.00 in
02:01 66.4 °F 61.8 °F 29.93 in Calm     85 % 0.00 in
02:06 66.3 °F 61.7 °F 29.93 in Calm     85 % 0.00 in
02:11 66.2 °F 61.6 °F 29.93 in Calm     85 % 0.00 in
02:16 66.1 °F 61.5 °F 29.93 in Calm     85 % 0.00 in
02:21 66.1 °F 61.5 °F 29.93 in Calm     85 % 0.00 in
02:26 66.1 °F 61.8 °F 29.93 in Calm     86 % 0.00 in
02:31 66.0 °F 61.7 °F 29.93 in Calm     86 % 0.00 in
02:36 65.9 °F 61.6 °F 29.93 in Calm     86 % 0.00 in
02:41 65.9 °F 61.9 °F 29.93 in Calm     87 % 0.00 in
02:46 65.9 °F 61.9 °F 29.93 in Calm     87 % 0.00 in
02:51 65.8 °F 61.8 °F 29.93 in Calm     87 % 0.00 in
02:56 65.8 °F 61.8 °F 29.92 in Calm     87 % 0.00 in
03:01 65.7 °F 62.0 °F 29.92 in Calm     88 % 0.00 in
03:06 65.7 °F 62.0 °F 29.92 in Calm     88 % 0.00 in
03:11 65.7 °F 62.0 °F 29.92 in Calm     88 % 0.00 in
03:16 65.6 °F 62.3 °F 29.92 in Calm     89 % 0.00 in
03:21 65.6 °F 62.3 °F 29.92 in Calm     89 % 0.00 in
03:26 65.5 °F 61.9 °F 29.92 in Calm     88 % 0.00 in
03:31 65.5 °F 62.2 °F 29.92 in Calm     89 % 0.00 in
03:36 65.4 °F 62.1 °F 29.93 in Calm     89 % 0.00 in
03:41 65.4 °F 62.1 °F 29.93 in Calm     89 % 0.00 in
03:46 65.4 °F 62.1 °F 29.93 in Calm     89 % 0.00 in
03:51 65.3 °F 62.0 °F 29.93 in Calm     89 % 0.00 in
03:56 65.3 °F 62.3 °F 29.93 in Calm     90 % 0.00 in
04:01 65.3 °F 62.0 °F 29.93 in Calm     89 % 0.00 in
04:06 65.2 °F 61.9 °F 29.92 in Calm     89 % 0.00 in
04:11 65.2 °F 61.9 °F 29.93 in Calm     89 % 0.00 in
04:16 65.2 °F 61.9 °F 29.92 in Calm     89 % 0.00 in
04:21 65.1 °F 61.8 °F 29.92 in Calm     89 % 0.00 in
04:27 65.1 °F 62.1 °F 29.92 in Calm     90 % 0.00 in
04:32 65.0 °F 62.0 °F 29.93 in Calm     90 % 0.00 in
04:37 65.0 °F 62.0 °F 29.93 in Calm     90 % 0.00 in
04:42 65.0 °F 62.0 °F 29.93 in Calm     90 % 0.00 in
04:47 65.0 °F 62.3 °F 29.92 in Calm     91 % 0.00 in
04:52 64.9 °F 62.2 °F 29.92 in Calm     91 % 0.00 in
04:57 64.9 °F 62.2 °F 29.92 in Calm     91 % 0.00 in
05:02 64.9 °F 62.2 °F 29.92 in Calm     91 % 0.00 in
05:07 64.8 °F 62.1 °F 29.92 in Calm     91 % 0.00 in
05:12 64.8 °F 62.1 °F 29.92 in Calm     91 % 0.00 in
05:17 64.8 °F 62.1 °F 29.92 in Calm     91 % 0.00 in
05:18 64.8 °F 62.1 °F 29.92 in Calm     91 % 0.00 in
05:23 64.7 °F 62.0 °F 29.92 in Calm     91 % 0.00 in
05:28 64.7 °F 62.0 °F 29.92 in Calm     91 % 0.00 in
05:33 64.7 °F 62.0 °F 29.92 in Calm     91 % 0.00 in
05:38 64.6 °F 61.9 °F 29.92 in Calm     91 % 0.00 in
05:43 64.6 °F 61.9 °F 29.93 in Calm     91 % 0.00 in
05:48 64.5 °F 61.8 °F 29.93 in Calm     91 % 0.00 in
05:53 64.5 °F 61.8 °F 29.93 in Calm     91 % 0.00 in
05:58 64.5 °F 62.1 °F 29.93 in Calm     92 % 0.00 in
06:03 64.5 °F 62.1 °F 29.94 in Calm     92 % 0.00 in
06:08 64.5 °F 62.4 °F 29.94 in Calm     93 % 0.00 in
06:18 64.5 °F 62.4 °F 29.94 in Calm     93 % 0.00 in
06:23 64.5 °F 62.4 °F 29.94 in Calm     93 % 0.00 in
06:28 64.5 °F 62.4 °F 29.94 in Calm     93 % 0.00 in
06:33 64.4 °F 62.3 °F 29.95 in Calm     93 % 0.00 in
06:39 64.5 °F 62.4 °F 29.95 in Calm     93 % 0.00 in
06:44 64.4 °F 62.3 °F 29.95 in Calm     93 % 0.00 in
06:49 64.5 °F 62.4 °F 29.95 in Calm     93 % 0.00 in
06:54 64.5 °F 62.4 °F 29.95 in Calm     93 % 0.00 in
06:59 64.4 °F 62.3 °F 29.95 in Calm     93 % 0.00 in
07:04 64.4 °F 62.3 °F 29.95 in Calm     93 % 0.00 in
07:09 64.4 °F 62.6 °F 29.95 in Calm     94 % 0.00 in
07:14 64.5 °F 62.7 °F 29.95 in Calm     94 % 0.00 in
07:19 64.6 °F 62.8 °F 29.95 in Calm     94 % 0.00 in
07:24 64.7 °F 62.9 °F 29.96 in Calm     94 % 0.00 in
07:29 64.8 °F 63.3 °F 29.97 in Calm     95 % 0.00 in
07:34 64.9 °F 63.4 °F 29.97 in West 0.1 mph 1.0 mph 95 % 0.00 in
07:39 65.1 °F 63.6 °F 29.97 in Calm     95 % 0.00 in
07:44 65.3 °F 63.8 °F 29.97 in Calm     95 % 0.00 in
07:49 65.6 °F 64.4 °F 29.97 in Calm     96 % 0.00 in
07:54 66.0 °F 64.8 °F 29.97 in Calm     96 % 0.00 in
07:59 66.3 °F 65.1 °F 29.97 in Calm     96 % 0.00 in
08:04 66.7 °F 65.8 °F 29.97 in Calm     97 % 0.00 in
08:09 67.0 °F 66.1 °F 29.97 in NE 0.1 mph 1.2 mph 97 % 0.00 in
08:14 67.2 °F 66.3 °F 29.97 in Calm     97 % 0.00 in
08:19 67.4 °F 66.5 °F 29.97 in Calm   1.2 mph 97 % 0.00 in
08:24 67.4 °F 66.2 °F 29.97 in Calm     96 % 0.00 in
08:29 67.6 °F 66.4 °F 29.97 in Calm     96 % 0.00 in
08:34 67.8 °F 66.6 °F 29.97 in Calm     96 % 0.00 in
08:39 68.1 °F 66.9 °F 29.97 in Calm     96 % 0.00 in
08:44 68.3 °F 67.1 °F 29.97 in Calm     96 % 0.00 in
08:50 68.6 °F 67.4 °F 29.97 in Calm   1.2 mph 96 % 0.00 in
08:55 69.0 °F 67.8 °F 29.97 in North 1.2 mph 3.5 mph 96 % 0.00 in
08:57 69.2 °F 67.7 °F 29.97 in North 1.3 mph 3.5 mph 95 % 0.00 in
09:02 69.5 °F 68.0 °F 29.98 in NW 1.0 mph 2.0 mph 95 % 0.00 in
09:07 69.8 °F 68.3 °F 29.98 in NW 1.3 mph 2.3 mph 95 % 0.00 in
09:12 70.2 °F 68.7 °F 29.98 in North 1.7 mph 2.3 mph 95 % 0.00 in
09:17 70.4 °F 68.6 °F 29.98 in North 1.7 mph 3.5 mph 94 % 0.00 in
09:22 70.7 °F 68.9 °F 29.98 in NNW 1.0 mph 1.2 mph 94 % 0.00 in
09:27 71.1 °F 69.0 °F 29.99 in North 0.3 mph 2.3 mph 93 % 0.00 in
09:32 71.2 °F 69.1 °F 29.99 in North 0.7 mph 2.3 mph 93 % 0.00 in
09:38 71.4 °F 69.0 °F 29.99 in NW 1.7 mph 2.3 mph 92 % 0.00 in
09:43 71.6 °F 69.2 °F 29.99 in North 2.2 mph 3.0 mph 92 % 0.00 in
09:48 71.8 °F 69.3 °F 29.99 in North 1.4 mph 4.0 mph 92 % 0.00 in
09:53 72.0 °F 69.2 °F 29.99 in NNE 3.3 mph 5.0 mph 91 % 0.00 in
09:58 72.2 °F 69.4 °F 29.99 in NE 1.6 mph 3.5 mph 91 % 0.00 in
10:03 72.4 °F 69.6 °F 29.99 in North 2.7 mph 3.5 mph 91 % 0.00 in
10:08 72.6 °F 69.8 °F 29.99 in NE 4.5 mph 6.9 mph 91 % 0.00 in
10:13 72.9 °F 70.1 °F 29.99 in NNE 2.8 mph 3.5 mph 91 % 0.00 in
10:18 73.1 °F 70.3 °F 29.99 in NNE 4.1 mph 5.8 mph 91 % 0.00 in
10:23 73.5 °F 70.4 °F 29.99 in NNE 3.0 mph 5.0 mph 90 % 0.00 in
10:28 73.7 °F 70.6 °F 29.99 in ENE 2.3 mph 4.6 mph 90 % 0.00 in
10:33 73.8 °F 70.4 °F 29.99 in NNE 2.6 mph 6.0 mph 89 % 0.00 in
10:38 74.0 °F 70.6 °F 29.98 in NNW 1.1 mph 3.5 mph 89 % 0.00 in
10:43 74.2 °F 70.7 °F 29.98 in NNE 4.4 mph 5.8 mph 89 % 0.00 in
10:48 74.3 °F 70.8 °F 29.98 in NNE 2.6 mph 4.6 mph 89 % 0.00 in
10:53 74.4 °F 70.9 °F 29.98 in NNW 2.6 mph 4.0 mph 89 % 0.00 in
10:58 74.6 °F 70.8 °F 29.98 in NNE 2.3 mph 4.6 mph 88 % 0.00 in
11:03 74.7 °F 70.9 °F 29.98 in NNW 2.3 mph 5.8 mph 88 % 0.00 in
11:08 75.0 °F 71.5 °F 29.98 in NE 2.7 mph 4.0 mph 89 % 0.00 in
11:13 75.5 °F 72.0 °F 29.98 in ENE 1.6 mph 3.5 mph 89 % 0.00 in
11:19 76.2 °F 72.0 °F 29.98 in NE 1.6 mph 4.6 mph 87 % 0.00 in
11:24 77.1 °F 72.2 °F 29.98 in ENE 2.3 mph 3.5 mph 85 % 0.00 in
11:29 77.9 °F 72.3 °F 29.97 in NE 1.5 mph 3.5 mph 83 % 0.00 in
11:34 78.5 °F 72.2 °F 29.97 in ENE 2.4 mph 7.0 mph 81 % 0.00 in
11:39 79.1 °F 72.8 °F 29.97 in North 3.7 mph 4.6 mph 81 % 0.00 in
11:44 79.6 °F 72.5 °F 29.97 in NE 1.4 mph 3.5 mph 79 % 0.00 in
11:49 80.2 °F 72.7 °F 29.97 in NE 2.1 mph 3.5 mph 78 % 0.00 in
11:54 80.7 °F 72.4 °F 29.97 in ENE 2.1 mph 3.5 mph 76 % 0.00 in
11:59 81.2 °F 72.9 °F 29.97 in ENE 1.4 mph 3.5 mph 76 % 0.00 in
12:04 81.3 °F 72.6 °F 29.97 in ENE 2.1 mph 3.5 mph 75 % 0.00 in
12:09 81.4 °F 73.1 °F 29.97 in NE 1.0 mph 2.3 mph 76 % 0.00 in
12:14 81.6 °F 72.9 °F 29.97 in North 1.9 mph 3.5 mph 75 % 0.00 in
12:19 81.7 °F 72.6 °F 29.97 in North 3.5 mph 7.0 mph 74 % 0.00 in
12:24 82.1 °F 73.0 °F 29.97 in ENE 2.2 mph 5.0 mph 74 % 0.00 in
12:29 82.3 °F 72.4 °F 29.97 in NNE 2.0 mph 3.5 mph 72 % 0.00 in
12:34 82.4 °F 72.5 °F 29.96 in ENE 2.8 mph 3.5 mph 72 % 0.00 in
12:39 82.8 °F 72.4 °F 29.97 in ENE 0.4 mph 1.2 mph 71 % 0.00 in
12:44 83.1 °F 71.9 °F 29.97 in Calm   1.2 mph 69 % 0.00 in
12:49 83.6 °F 71.5 °F 29.96 in Calm   1.2 mph 67 % 0.00 in
12:54 84.1 °F 72.0 °F 29.97 in NE 0.1 mph 1.0 mph 67 % 0.00 in
12:59 84.6 °F 72.0 °F 29.97 in NE 2.2 mph 3.5 mph 66 % 0.00 in
13:04 84.7 °F 71.6 °F 29.97 in NE 0.5 mph 3.5 mph 65 % 0.00 in
13:09 84.6 °F 71.1 °F 29.96 in NE 1.2 mph 2.0 mph 64 % 0.00 in
13:14 84.7 °F 72.1 °F 29.96 in NNE 0.6 mph 2.0 mph 66 % 0.00 in
13:19 84.7 °F 70.7 °F 29.96 in NE 0.6 mph 2.3 mph 63 % 0.00 in
13:24 84.6 °F 71.5 °F 29.96 in NE 2.7 mph 3.5 mph 65 % 0.00 in
13:29 84.5 °F 71.4 °F 29.96 in North 1.5 mph 2.3 mph 65 % 0.00 in
13:35 84.6 °F 71.1 °F 29.96 in NE 0.7 mph 2.3 mph 64 % 0.00 in
13:40 84.6 °F 71.1 °F 29.95 in NE 1.1 mph 3.5 mph 64 % 0.00 in
13:45 84.6 °F 71.5 °F 29.95 in NE 0.4 mph 2.0 mph 65 % 0.00 in
13:50 84.7 °F 71.6 °F 29.95 in NE 1.2 mph 3.5 mph 65 % 0.00 in
13:55 84.9 °F 71.8 °F 29.94 in NNE 1.5 mph 4.6 mph 65 % 0.00 in
14:00 85.0 °F 71.9 °F 29.94 in North 2.0 mph 4.0 mph 65 % 0.00 in
14:05 85.4 °F 72.7 °F 29.94 in NNE 1.1 mph 2.3 mph 66 % 0.00 in
14:10 85.6 °F 72.0 °F 29.94 in ENE 0.5 mph 2.3 mph 64 % 0.00 in
14:15 85.6 °F 72.9 °F 29.94 in NE 2.0 mph 3.5 mph 66 % 0.00 in
14:20 85.4 °F 71.8 °F 29.94 in NE 1.5 mph 3.5 mph 64 % 0.00 in
14:26 85.2 °F 71.6 °F 29.94 in NE 1.0 mph 3.0 mph 64 % 0.00 in
14:31 84.7 °F 70.8 °F 29.93 in ENE 2.0 mph 5.0 mph 63 % 0.00 in
14:36 84.5 °F 71.9 °F 29.93 in Calm   4.0 mph 66 % 0.00 in
14:41 84.5 °F 71.5 °F 29.93 in Calm   1.0 mph 65 % 0.00 in
14:46 84.4 °F 69.9 °F 29.93 in NE 1.0 mph 4.0 mph 62 % 0.00 in
14:51 84.3 °F 70.8 °F 29.93 in Calm     64 % 0.00 in
14:56 84.2 °F 70.2 °F 29.93 in NE 2.1 mph 3.5 mph 63 % 0.00 in
15:01 83.9 °F 70.0 °F 29.93 in ENE 1.7 mph 3.5 mph 63 % 0.00 in
15:06 83.7 °F 71.1 °F 29.93 in ENE 1.0 mph 3.5 mph 66 % 0.00 in
15:11 83.4 °F 71.7 °F 29.93 in NE 0.6 mph 2.3 mph 68 % 0.00 in
15:16 83.2 °F 72.0 °F 29.92 in NE 0.4 mph 1.2 mph 69 % 0.00 in
15:21 83.0 °F 70.0 °F 29.93 in NE 0.9 mph 1.2 mph 65 % 0.00 in
15:26 82.8 °F 70.3 °F 29.93 in NE 0.5 mph 1.2 mph 66 % 0.00 in
15:31 82.8 °F 70.3 °F 29.93 in NE 0.1 mph 1.2 mph 66 % 0.00 in
15:37 82.6 °F 70.5 °F 29.92 in Calm   1.2 mph 67 % 0.00 in
15:42 82.5 °F 70.0 °F 29.92 in NE 1.0 mph 2.3 mph 66 % 0.00 in
15:47 82.3 °F 70.2 °F 29.93 in Calm   3.5 mph 67 % 0.00 in
15:52 82.2 °F 70.1 °F 29.92 in Calm   1.2 mph 67 % 0.00 in
15:57 82.1 °F 69.6 °F 29.92 in NE 0.1 mph 1.2 mph 66 % 0.00 in
16:02 82.1 °F 70.1 °F 29.92 in NE 0.2 mph 1.2 mph 67 % 0.00 in
16:07 82.0 °F 69.1 °F 29.92 in NE 0.4 mph 1.2 mph 65 % 0.00 in
16:12 82.0 °F 69.1 °F 29.92 in NE 0.1 mph 1.2 mph 65 % 0.00 in
16:17 81.9 °F 68.1 °F 29.92 in NE 0.6 mph 2.0 mph 63 % 0.00 in
16:22 81.8 °F 68.4 °F 29.92 in NE 1.1 mph 2.3 mph 64 % 0.00 in
16:27 81.8 °F 68.9 °F 29.92 in NE 2.0 mph 3.5 mph 65 % 0.00 in
16:32 81.7 °F 68.8 °F 29.92 in NE 1.7 mph 3.5 mph 65 % 0.00 in
16:37 81.6 °F 69.6 °F 29.92 in NE 0.6 mph 1.2 mph 67 % 0.00 in
16:42 81.5 °F 69.0 °F 29.92 in NE 0.5 mph 1.2 mph 66 % 0.00 in
16:47 81.3 °F 68.9 °F 29.92 in NE 0.6 mph 1.2 mph 66 % 0.00 in
16:52 81.1 °F 69.1 °F 29.92 in Calm   1.2 mph 67 % 0.00 in
16:57 81.1 °F 69.1 °F 29.92 in SE 0.3 mph 1.2 mph 67 % 0.00 in
17:02 81.2 °F 69.2 °F 29.92 in SE 0.5 mph 1.2 mph 67 % 0.00 in
17:07 81.1 °F 69.1 °F 29.92 in Calm   1.2 mph 67 % 0.00 in
17:12 81.0 °F 69.4 °F 29.92 in Calm   1.2 mph 68 % 0.00 in
17:17 81.0 °F 69.4 °F 29.92 in SE 0.7 mph 2.3 mph 68 % 0.00 in
17:23 81.0 °F 69.9 °F 29.92 in SE 1.7 mph 4.0 mph 69 % 0.00 in
17:28 80.9 °F 69.8 °F 29.92 in SE 0.3 mph 1.2 mph 69 % 0.00 in
17:33 80.8 °F 69.7 °F 29.92 in SE 0.1 mph 1.2 mph 69 % 0.00 in
17:38 80.8 °F 70.1 °F 29.92 in SE 0.5 mph 2.3 mph 70 % 0.00 in
17:43 80.6 °F 69.9 °F 29.92 in SE 1.9 mph 3.5 mph 70 % 0.00 in
17:48 80.6 °F 69.9 °F 29.92 in SE 0.5 mph 3.5 mph 70 % 0.00 in
17:53 80.6 °F 70.3 °F 29.92 in Calm   3.5 mph 71 % 0.00 in
17:58 80.6 °F 70.3 °F 29.92 in Calm   1.2 mph 71 % 0.00 in
18:03 80.5 °F 70.2 °F 29.92 in Calm   1.2 mph 71 % 0.00 in
18:08 80.4 °F 70.1 °F 29.91 in SE 1.6 mph 3.5 mph 71 % 0.00 in
18:13 80.3 °F 70.0 °F 29.91 in SE 0.8 mph 2.3 mph 71 % 0.00 in
18:18 80.2 °F 69.9 °F 29.92 in SE 1.9 mph 4.0 mph 71 % 0.00 in
18:23 80.0 °F 70.2 °F 29.92 in SE 1.2 mph 3.0 mph 72 % 0.00 in
18:28 79.8 °F 69.6 °F 29.92 in SE 0.3 mph 2.3 mph 71 % 0.00 in
18:33 79.4 °F 69.2 °F 29.92 in SE 0.5 mph 3.5 mph 71 % 0.00 in
18:48 78.2 °F 68.4 °F 29.92 in SE 1.3 mph 3.5 mph 72 % 0.00 in
18:53 77.8 °F 68.4 °F 29.92 in SSE 3.6 mph 9.0 mph 73 % 0.00 in
18:58 77.3 °F 68.8 °F 29.92 in SE 2.2 mph 6.9 mph 75 % 0.00 in
19:03 76.8 °F 68.7 °F 29.91 in SE 2.7 mph 9.2 mph 76 % 0.00 in
19:08 76.4 °F 68.7 °F 29.92 in SE 1.5 mph 3.5 mph 77 % 0.00 in
19:13 76.0 °F 68.6 °F 29.92 in SSE 2.9 mph 4.6 mph 78 % 0.00 in
19:18 75.4 °F 68.4 °F 29.92 in SE 2.6 mph 6.9 mph 79 % 0.00 in
19:23 74.9 °F 67.9 °F 29.93 in SE 0.9 mph 3.5 mph 79 % 0.00 in
19:28 74.6 °F 68.0 °F 29.93 in SE 1.6 mph 2.3 mph 80 % 0.00 in
19:33 74.3 °F 67.4 °F 29.93 in SE 4.7 mph 5.0 mph 79 % 0.00 in
19:38 73.8 °F 66.9 °F 29.93 in Calm   3.5 mph 79 % 0.00 in
19:43 73.4 °F 66.5 °F 29.93 in SE 2.6 mph 4.6 mph 79 % 0.00 in
19:48 73.1 °F 66.2 °F 29.93 in SE 2.5 mph 4.6 mph 79 % 0.00 in
19:58 72.7 °F 66.2 °F 29.94 in SE 0.1 mph 1.2 mph 80 % 0.00 in
20:04 72.5 °F 65.6 °F 29.94 in SE 0.5 mph 3.5 mph 79 % 0.00 in
20:09 72.3 °F 65.8 °F 29.94 in SE 0.7 mph   80 % 0.00 in
20:14 72.1 °F 65.6 °F 29.94 in Calm   1.0 mph 80 % 0.00 in
20:19 71.9 °F 65.8 °F 29.94 in Calm   4.6 mph 81 % 0.00 in
20:24 71.8 °F 65.7 °F 29.94 in Calm   1.2 mph 81 % 0.00 in
20:29 71.7 °F 65.6 °F 29.94 in Calm     81 % 0.00 in
20:34 71.7 °F 65.6 °F 29.94 in Calm     81 % 0.00 in
20:39 71.5 °F 65.4 °F 29.94 in Calm     81 % 0.00 in
20:44 71.4 °F 65.6 °F 29.94 in Calm     82 % 0.00 in
20:49 71.3 °F 65.5 °F 29.95 in Calm   1.2 mph 82 % 0.00 in
20:54 71.1 °F 65.7 °F 29.95 in Calm   1.2 mph 83 % 0.00 in
20:59 71.0 °F 65.6 °F 29.94 in Calm   1.2 mph 83 % 0.00 in
21:04 70.8 °F 65.4 °F 29.95 in Calm     83 % 0.00 in
21:09 70.7 °F 65.3 °F 29.95 in Calm     83 % 0.00 in
21:14 70.5 °F 65.1 °F 29.95 in Calm     83 % 0.00 in
21:19 70.4 °F 65.0 °F 29.95 in Calm     83 % 0.00 in
21:24 70.2 °F 65.1 °F 29.95 in Calm     84 % 0.00 in
21:29 70.1 °F 65.0 °F 29.95 in Calm     84 % 0.00 in
21:34 69.9 °F 65.2 °F 29.95 in Calm     85 % 0.00 in
21:39 69.7 °F 65.0 °F 29.95 in Calm     85 % 0.00 in
21:44 69.6 °F 64.9 °F 29.95 in Calm     85 % 0.00 in
21:49 69.4 °F 64.7 °F 29.95 in Calm     85 % 0.00 in
21:54 69.3 °F 64.9 °F 29.95 in Calm     86 % 0.00 in
21:59 69.1 °F 64.7 °F 29.95 in Calm     86 % 0.00 in
22:04 68.9 °F 64.5 °F 29.94 in Calm     86 % 0.00 in
22:10 68.8 °F 64.8 °F 29.94 in Calm     87 % 0.00 in
22:15 68.7 °F 64.7 °F 29.94 in Calm     87 % 0.00 in
22:20 68.5 °F 64.5 °F 29.94 in Calm     87 % 0.00 in
22:25 68.4 °F 64.4 °F 29.94 in Calm     87 % 0.00 in
22:30 68.2 °F 64.2 °F 29.94 in Calm     87 % 0.00 in
22:35 68.1 °F 64.4 °F 29.95 in Calm     88 % 0.00 in
22:40 68.0 °F 64.3 °F 29.95 in Calm     88 % 0.00 in
22:45 67.9 °F 64.2 °F 29.94 in Calm     88 % 0.00 in
22:50 67.8 °F 64.1 °F 29.94 in Calm     88 % 0.00 in
22:55 67.6 °F 63.9 °F 29.94 in Calm     88 % 0.00 in
23:00 67.6 °F 64.2 °F 29.94 in Calm     89 % 0.00 in
23:05 67.4 °F 64.0 °F 29.93 in Calm     89 % 0.00 in
23:10 67.3 °F 63.9 °F 29.93 in Calm     89 % 0.00 in
23:17 67.1 °F 63.7 °F 29.93 in Calm     89 % 0.00 in
23:22 67.0 °F 63.6 °F 29.93 in Calm     89 % 0.00 in
23:24 67.0 °F 63.6 °F 29.93 in Calm     89 % 0.00 in
23:29 66.9 °F 63.6 °F 29.93 in Calm     89 % 0.00 in
23:32 66.8 °F 63.8 °F 29.93 in Calm     90 % 0.00 in
23:37 66.7 °F 63.7 °F 29.93 in Calm     90 % 0.00 in
23:47 66.6 °F 63.6 °F 29.92 in Calm     90 % 0.00 in
23:53 66.5 °F 63.5 °F 29.92 in Calm     90 % 0.00 in
23:58 66.4 °F 63.4 °F 29.92 in Calm     90 % 0.00 in
Crab Meadow Weather
Compliments of Weather Underground - 3 mb

Script developed by  Jim McMurry - jmcmurry@mwt.net Adapted for the template by  Wim van der Kuil - Leuven-Template.eu

Extremes: The highest temperature ever recorded in the United States was 134 degrees F at Greenland Ranch in Death Valley, California.